SCP
0 0 0 -0 -0 -0 -0 -0 -0 -0 -0 -0 -0 -0 -0 -0 -0 -0 -0 -0 -0 -0 -0 -0 -0 0 -0 -0 0 -0 -0 -0 0 0 -0 -0 0 -0 -0 0 0 0 0 0 -0 -0 -0
0 0 -0 -0 -0 -0 -0 -0 -0 -0 -0 -0 -0 -0 -0 -0 -0 -0 -0 -0 -0 -0 -0 -0 0 0 -0 -0 -0 -0 0 0 0 -0 -0 -0 0 0 -0 0 -0 0 -0 -0 -0 -0 0
0 0 -0 -0 -0 -0 -0 -0 -0 -0 -0 -0 -0 -0 -0 -0 -0 -0 -0 -0 -0 -0 -0 -0 -0 -0 -0 -0 -0 -0 -0 -0 -0 -0 -0 -0 0 0 0 -0 -0 0 -0 0 0 -0 -0
0 0 -0 -0 -0 -0 -0 -0 -0 -0 -0 -0 -0 -0 -0 -0 -0 -0 -0 -0 -0 0 -0 0 0 0 -0 -0 -0 -0 -0 -0 -0 -0 -0 0 -0 -0 0 0 -0 0 0 0 -0 -0 -0
0 0 0 -0 -0 -0 -0 -0 -0 -0 -0 -0 -0 -0 -0 -0 -0 -0 -0 -0 0 0 0 0 0 0 -0 -0 -0 -0 -0 -0 -0 -0 -0 0 0 -0 -0 0 0 -0 0 0 -0 -0 0
0 0 0 -0 -0 -0 -0 -0 -0 -0 -0 -0 -0 -0 -0 -0 -0 -0 -0 0 0 0 0 0 0 0 -0 0 -0 -0 -0 -0 -0 -0 0 0 0 -0 -0 0 0 0 0 -0 0 -0 -0
0 0 0 -0 -0 -0 -0 -0 -0 -0 -0 -0 -0 -0 -0 -0 -0 -0 -0 0 0 0 0 0 0 0 0 0 -0 -0 0 0 -0 0 0 0 0 0 0 0 0 0 0 0 0 -0 -0
0 0 -0 -0 0 0 -0 -0 -0 -0 -0 -0 -0 -0 -0 -0 -0 0 0 0 0 0 0 0 0 -0 -0 0 0 0 0 0 0 0 0 0 -0 -0 -0 -0 0 -0 0 0 -0 0 0
0 0 0 -0 -0 -0 -0 0 0 0 0 0 0 0 0 -0 -0 0 0 0 0 0 0 0 0 0 0 0 0 -0 0 0 0 0 0 0 -0 -0 -0 -0 -0 0 0 0 0 0 0
-0 -0 0 -0 -0 -0 -0 -0 -0 -0 -0 -0 -0 0 0 -0 0 0 0 0 0 0 0 0 0 0 0 0 0 -0 0 0 0 0 0 -0 -0 -0 -0 -0 0 0 0 0 0 0 0
0 0 0 0 -0 -0 -0 -0 -0 0 0 -0 -0 0 0 0 0 0 0 0 0 0 0 0 0 0 0 0 0 0 -0 0 0 0 0 -0 -0 -0 -0 -0 0 0 0 0 0 0 0
0 0 0 0 -0 -0 -0 -0 -0 -0 -0 -0 -0 0 0 0 0 0 0 0 0 0 0 0 0 0 0 -0 -0 0 0 0 -0 0 -0 -0 -0 0 0 -0 0 0 0 0 0 0 0
0 0 0 -0 -0 -0 -0 -0 -0 -0 -0 -0 -0 0 0 0 0 0 0 0 0 0 0 0 0 0 0 0 -0 0 0 0 0 0 -0 -0 0 0 -0 -0 0 0 0 0 0 0 -0
0 0 0 -0 -0 -0 -0 -0 -0 -0 -0 -0 -0 0 0 0 0 0 0 0 0 0 0 0 0 0 0 0 0 0 0 0 -0 0 0 0 -0 0 -0 -0 0 0 0 0 -0 0 0
0 0 0 -0 -0 0 0 0 0 -0 -0 -0 0 0 0 0 0 0 0 0 0 0 0 0 0 0 0 0 0 0 0 0 0 0 0 0 -0 0 0 0 0 0 0 0 0 0 0
0 -0 -0 0 0 0 0 0 0 -0 -0 -0 0 0 0 0 0 0 0 0 0 0 0 0 0 0 0 0 0 0 0 0 0 0 0 0 -0 -0 0 0 0 0 0 0 0 0 0
0 0 0 0 0 0 0 0 -0 -0 -0 0 0 0 0 0 0 0 0 0 0 0 0 0 0 0 0 0 0 0 0 -0 0 0 0 0 0 -0 0 0 0 0 0 0 0 0 0
0 0 0 0 0 0 0 0 0 0 -0 0 0 0 0 0 0 0 0 0 0 0 0 0 0 -0 0 0 0 0 0 0 0 0 0 0 0 0 -0 -0 0 0 0 0 0 0 0
0 0 0 0 0 0 0 0 0 0 0 0 0 0 0 0 0 0 0 0 0 0 0 0 0 0 0 0 0 0 0 0 0 0 0 0 0 0 0 0 0 0 0 0 0 0 0
0 0 0 0 0 0 0 0 0 0 0 0 0 0 0 0 0 0 0 0 0 0 0 0 0 0 0 0 0 0 0 0 0 0 0 0 0 0 0 0 0 0 0 0 0 0 0
0 0 0 0 0 0 0 0 0 0 0 0 0 0 0 0 0 0 0 0 0 0 0 0 0 0 0 0 0 0 0 0 0 0 0 0 0 0 0 0 0 0 0 0 0 0 0
0 0 0 0 0 0 0 0 0 0 0 0 0 0 0 0 0 0 0 0 0 0 0 0 0 0 0 0 0 0 0 0 0 0 0 0 0 0 0 0 0 0 0 0 0 0 0
0 0 0 0 0 0 0 0 0 0 0 0 0 0 0 0 0 0 0 0 0 0 0 0 0 0 0 0 0 0 0 0 0 0 0 0 0 0 0 0 0 0 0 0 0 0 0
0 0 0 0 0 0 0 0 0 0 0 0 0 0 0 0 0 0 0 0 0 0 0 0 0 0 0 0 0 0 0 0 0 0 0 0 0 0 0 0 0 0 0 0 0 0 0
0 0 0 0 0 0 0 0 0 0 0 0 0 0 0 0 0 0 0 0 0 0 0 0 0 0 0 0 0 0 0 0 0 0 0 0 0 0 0 0 0 0 0 0 0 0 0
0 0 0 0 0 0 0 0 0 0 0 0 0 0 0 0 0 0 0 0 0 0 0 0 0 0 0 0 0 0 0 0 0 0 0 0 0 0 0 0 0 0 0 0 0 0 0
0 0 0 0 0 0 0 0 0 0 0 0 0 0 0 0 0 0 0 0 0 0 0 0 0 0 0 0 0 0 0 0 0 0 0 0 0 0 0 0 0 0 0 0 0 0 0
0 0 0 0 0 0 0 0 0 0 0 0 0 0 0 0 0 0 0 0 0 0 0 0 0 0 0 0 0 0 0 0 0 0 0 0 0 0 0 0 0 0 0 0 0 0 0
0 0 0 0 0 0 0 0 0 0 0 0 0 0 0 0 0 0 0 0 0 0 0 0 0 0 0 0 0 0 0 0 0 0 0 0 0 0 0 0 0 -0 0 0 0 0 0
Wind_Speed_500mb
33 32 31 30 30 31 30 31 30 30 30 29 27 26 25 24 22 21 21 18 15 10 8 5 5 4 4 9 7 11 15 22 25 17 10 8 5 7 7 2 5 3 4 14 19 16 15
34 35 31 31 30 31 31 31 30 30 29 28 28 26 25 25 24 21 20 17 14 9 7 4 3 3 3 5 16 15 12 12 17 17 12 11 4 3 9 7 6 7 17 18 14 19 10
34 34 34 33 31 30 30 30 30 30 30 30 30 28 27 26 25 23 21 18 15 10 7 6 7 8 15 16 17 25 11 6 8 11 11 12 3 3 6 7 9 1 7 8 6 8 7
35 33 33 33 32 31 31 30 31 31 31 30 30 29 28 26 27 25 22 19 16 11 9 7 10 12 12 11 21 28 19 10 9 19 17 12 3 6 6 16 6 5 4 3 7 14 15
35 35 34 33 33 33 32 32 31 31 31 31 31 31 30 29 29 26 22 20 16 12 11 7 10 10 10 23 31 29 21 14 9 21 21 10 4 6 11 8 7 9 3 1 6 22 11
37 36 34 33 33 33 34 34 33 33 33 33 32 31 31 32 30 27 23 16 11 11 7 8 12 6 9 16 28 29 27 23 9 14 11 11 9 7 6 7 6 7 3 7 7 13 11
41 41 38 35 34 34 34 34 34 34 36 36 35 33 31 32 31 26 16 5 4 2 6 15 8 19 15 14 11 19 29 31 27 5 8 4 7 18 16 14 8 4 7 8 4 10 12
44 43 40 39 38 37 36 36 35 35 36 36 36 35 32 31 30 10 10 8 11 9 19 28 41 46 47 20 7 12 35 28 13 9 7 11 16 9 14 12 10 9 8 7 4 3 7
49 44 40 39 39 39 39 38 37 38 38 38 36 35 31 28 17 3 7 10 14 19 7 17 29 33 41 34 20 22 43 25 11 10 10 14 11 12 12 7 8 9 12 10 5 8 1
49 46 42 42 42 42 42 41 39 39 39 39 37 35 32 24 11 11 5 4 18 4 9 12 7 8 25 18 9 36 33 36 5 21 14 11 15 14 5 11 14 14 18 15 19 8 4
46 45 43 42 42 42 42 42 42 41 41 40 38 37 32 25 20 10 8 8 11 3 7 4 5 10 29 31 14 24 44 33 18 13 14 17 11 9 10 17 17 20 15 16 7 8 7
45 43 41 40 39 39 41 42 41 41 43 43 41 38 34 29 20 12 9 9 4 11 10 8 10 11 10 8 4 10 20 26 9 11 4 16 4 10 16 9 20 13 15 17 11 6 4
43 42 40 39 38 39 42 44 44 43 44 44 41 41 35 25 11 7 5 8 9 6 9 9 2 4 7 11 4 8 13 13 11 8 8 5 9 9 9 3 5 10 12 7 6 4 12
43 41 40 40 42 45 48 50 51 49 49 50 43 35 29 19 18 16 11 9 7 6 10 9 9 5 15 9 9 11 12 11 11 9 5 11 12 14 10 17 18 13 14 12 11 8 9
41 39 39 41 44 45 48 50 52 52 53 54 42 17 15 2 19 23 13 6 13 9 5 13 14 7 6 1 9 7 15 16 18 17 13 9 12 8 11 9 18 8 6 9 14 5 3
39 39 39 40 43 45 49 52 55 55 53 52 34 7 27 10 21 24 9 6 6 6 8 4 5 7 10 10 4 8 14 9 13 24 17 11 7 10 4 10 6 14 14 6 5 7 7
38 39 40 42 44 45 48 51 55 56 55 49 15 10 16 29 16 4 6 9 7 6 7 2 2 8 3 4 2 5 9 9 16 11 18 12 8 11 4 8 19 6 4 12 10 8 10
38 39 42 43 44 44 45 49 53 58 56 47 13 7 11 23 8 4 4 4 7 10 11 7 5 14 11 9 7 6 12 9 11 24 20 17 11 10 23 8 6 5 11 13 10 9 2
38 39 40 40 41 43 44 46 49 51 53 46 10 6 8 12 5 6 11 8 4 8 9 9 6 2 3 12 7 14 12 18 21 14 17 15 8 5 21 10 5 7 7 11 12 7 12
34 37 38 41 43 43 43 43 43 44 42 32 10 6 10 14 12 5 7 7 9 12 4 8 6 11 10 6 8 9 7 8 4 11 12 26 6 15 21 20 10 8 11 8 12 9 11
34 36 38 39 41 43 45 45 42 39 36 21 15 5 6 6 7 7 4 4 6 9 12 19 8 9 6 7 11 5 8 16 18 8 10 11 14 12 15 11 10 13 17 18 12 13 13
33 34 36 37 39 42 45 45 41 37 30 19 9 10 11 6 13 9 9 5 6 10 6 7 6 18 11 3 6 10 4 6 11 12 8 6 7 9 8 7 14 12 18 19 7 8 3
31 33 32 32 34 38 44 47 41 36 32 16 15 11 7 8 8 3 2 7 9 14 15 10 16 11 10 7 27 49 43 37 24 6 8 0 10 3 6 8 9 2 21 22 11 10 15
30 32 32 31 31 34 39 42 42 38 30 22 19 13 8 6 3 4 7 12 17 14 10 32 41 9 12 50 46 32 24 41 28 29 30 7 5 6 5 6 3 12 4 14 18 16 15
29 32 31 30 29 30 32 33 33 32 31 22 11 8 6 6 7 20 3 6 25 30 11 16 31 22 45 29 6 9 12 12 12 18 17 21 6 5 10 6 11 15 9 14 14 16 17
28 29 32 31 30 28 27 28 29 28 25 21 12 7 5 10 8 10 6 17 6 7 11 11 32 35 14 5 3 9 8 8 10 8 2 11 10 13 9 12 24 15 6 6 8 6 12
25 26 30 34 31 24 24 26 27 28 29 26 16 10 7 12 18 11 7 5 11 11 7 14 22 20 15 4 7 7 8 7 9 9 8 7 4 17 10 8 10 14 10 11 12 15 15
23 25 28 31 32 24 22 24 27 31 36 34 21 11 8 13 35 52 45 41 28 18 6 11 18 4 8 2 5 7 6 6 3 11 10 10 12 9 8 8 19 13 6 12 10 11 15
22 23 26 30 32 28 23 24 27 31 32 35 31 16 17 27 29 44 57 46 48 47 32 11 14 13 10 5 2 5 3 2 4 7 10 5 7 5 11 14 7 22 4 13 19 17 23
Wind_Direction_500mb
357 354 354 354 355 355 354 355 355 355 355 354 353 352 349 346 346 346 347 357 9 3 6 15 35 36 196 215 202 131 159 181 192 192 185 164 81 143 168 92 111 45 137 61 116 126 102
357 357 352 352 352 353 351 353 353 352 353 350 348 345 342 339 336 336 333 339 351 346 332 311 308 328 267 234 202 158 135 156 198 205 191 170 96 106 111 62 57 61 100 109 89 120 114
358 359 1 359 356 353 353 353 352 351 352 350 348 344 339 335 331 328 325 322 328 328 325 276 259 266 269 219 188 197 175 182 204 209 199 170 137 263 129 76 86 162 91 93 147 124 122
359 357 357 358 356 354 352 351 351 351 351 350 349 346 340 334 327 324 321 312 312 308 296 283 241 259 257 191 177 174 186 196 207 183 173 139 243 157 83 124 37 43 60 107 205 163 169
355 355 353 352 351 349 347 347 347 347 346 346 346 346 343 336 328 325 317 310 303 291 276 258 230 241 261 192 192 188 188 200 184 175 170 150 169 107 112 86 16 9 318 244 196 202 141
357 354 350 348 345 345 344 340 339 339 338 338 339 341 343 338 332 327 318 309 308 304 245 212 234 266 220 193 212 228 204 214 199 186 192 180 153 80 50 86 226 254 252 251 215 206 170
357 354 350 346 343 342 341 338 337 335 332 330 331 332 337 338 335 330 325 321 355 8 233 225 214 260 258 296 250 228 200 200 210 184 147 99 103 225 184 192 199 220 204 238 254 181 168
350 348 348 349 347 344 343 342 341 337 334 331 326 325 329 336 340 353 57 95 73 328 294 262 254 251 246 231 321 184 182 177 158 194 109 33 228 156 166 177 216 243 235 228 340 353 181
349 348 347 347 346 347 344 342 340 340 339 337 330 324 323 330 339 27 357 137 333 317 251 285 239 235 227 221 229 209 179 174 144 143 178 173 251 144 159 164 182 243 217 179 156 102 281
356 356 352 350 347 345 343 343 341 336 334 334 334 328 322 321 314 316 188 329 330 304 46 278 242 238 182 183 224 210 198 183 150 186 159 231 256 249 159 223 150 253 209 229 132 115 248
355 354 353 350 348 346 346 345 344 342 338 335 331 324 318 312 296 290 234 283 319 120 354 238 178 164 170 168 150 197 203 193 166 170 125 237 186 152 194 219 165 242 189 194 124 97 42
354 354 354 354 354 353 353 353 350 345 338 333 330 323 310 304 282 275 219 231 195 43 256 334 134 157 123 217 159 122 163 186 201 142 214 226 215 167 217 166 185 83 77 47 54 69 344
354 356 357 1 2 2 359 356 352 347 339 331 330 318 305 290 267 202 211 171 52 156 323 331 356 105 187 173 184 139 148 171 170 118 237 267 224 238 177 158 91 94 74 26 18 28 226
356 358 1 2 1 358 356 355 353 350 342 335 334 320 305 282 240 210 177 60 167 245 261 321 345 283 185 155 220 176 126 195 216 113 121 187 301 186 187 187 180 176 156 152 190 194 244
356 357 358 357 355 355 354 353 353 352 345 338 342 1 7 285 194 171 157 90 203 217 314 348 330 56 354 84 171 146 188 204 198 167 183 170 279 256 204 152 135 214 166 191 102 357 51
357 355 355 354 353 354 354 353 353 353 350 342 347 46 26 71 148 158 79 215 237 224 336 2 306 40 7 333 44 164 195 216 205 187 155 209 278 227 242 125 45 163 156 81 13 141 223
355 354 353 353 353 355 354 353 354 355 354 351 5 75 55 92 119 136 143 230 284 285 327 288 295 327 217 347 287 248 227 260 198 180 149 144 140 286 357 187 180 142 154 59 112 122 158
353 352 351 352 353 355 356 356 356 356 359 7 36 53 119 16 38 45 107 224 305 318 347 281 203 215 222 196 267 260 236 235 178 148 166 201 158 237 230 221 217 206 156 137 128 218 101
350 352 354 356 357 359 360 356 356 359 2 3 36 51 24 348 75 356 320 310 312 333 329 341 305 345 280 206 224 211 264 260 202 159 169 183 215 275 314 354 31 202 166 118 106 93 188
357 358 1 359 360 2 2 0 358 359 4 6 12 29 23 65 62 87 10 300 325 323 256 1 283 23 351 334 261 277 262 277 212 190 201 152 148 177 222 216 152 185 159 153 125 128 169
357 356 359 1 2 0 360 1 359 1 5 13 24 48 32 340 358 353 312 290 327 354 338 13 3 19 321 322 327 331 325 329 294 179 102 146 206 186 244 231 171 183 175 168 172 163 154
355 356 356 357 358 358 357 0 1 1 10 38 41 14 357 330 319 327 3 32 328 347 300 316 15 321 290 233 205 271 327 252 278 333 194 190 225 166 278 206 193 185 190 159 150 135 131
352 350 352 354 357 358 358 359 5 8 15 51 46 22 352 347 350 25 322 342 333 355 281 267 338 309 275 296 307 282 262 247 258 329 302 206 157 152 259 319 141 34 187 181 175 170 149
347 348 350 352 353 356 356 3 15 22 25 33 35 34 15 297 342 290 331 313 298 314 270 298 308 275 316 318 303 302 289 259 229 246 218 274 304 85 24 347 272 245 120 181 179 187 200
345 346 347 348 349 351 356 0 4 13 22 20 27 44 353 296 252 296 338 320 322 314 273 271 284 296 312 308 279 2 325 320 263 216 205 202 204 82 168 309 295 308 170 153 164 236 200
341 346 347 348 348 348 350 353 355 357 3 8 8 6 324 307 248 239 301 300 301 316 319 285 314 314 316 232 228 162 199 303 297 278 112 153 209 142 144 142 247 245 295 171 99 272 225
334 338 342 344 346 344 347 347 348 347 346 348 337 320 299 273 269 259 237 240 291 286 269 302 333 322 347 346 203 171 216 189 280 286 202 137 280 177 171 129 281 247 221 102 117 230 193
326 331 335 338 346 339 339 340 341 342 341 343 331 305 289 255 273 276 273 266 265 239 242 329 341 272 315 292 200 212 178 213 255 286 301 179 169 178 117 151 230 10 48 166 265 252 199
317 322 327 332 335 342 331 331 331 338 341 343 353 341 290 267 264 282 278 262 262 254 263 237 265 313 275 278 320 316 238 284 141 266 352 300 192 218 199 194 129 314 245 12 356 294 272
Wind_Speed_850mb
33 32 31 30 30 31 30 31 30 30 30 29 27 26 25 24 22 21 21 18 15 10 8 5 5 4 4 9 7 11 15 22 25 17 10 8 5 7 7 2 5 3 4 14 19 16 15
34 35 31 31 30 31 31 31 30 30 29 28 28 26 25 25 24 21 20 17 14 9 7 4 3 3 3 5 16 15 12 12 17 17 12 11 4 3 9 7 6 7 17 18 14 19 10
34 34 34 33 31 30 30 30 30 30 30 30 30 28 27 26 25 23 21 18 15 10 7 6 7 8 15 16 17 25 11 6 8 11 11 12 3 3 6 7 9 1 7 8 6 8 7
35 33 33 33 32 31 31 30 31 31 31 30 30 29 28 26 27 25 22 19 16 11 9 7 10 12 12 11 21 28 19 10 9 19 17 12 3 6 6 16 6 5 4 3 7 14 15
35 35 34 33 33 33 32 32 31 31 31 31 31 31 30 29 29 26 22 20 16 12 11 7 10 10 10 23 31 29 21 14 9 21 21 10 4 6 11 8 7 9 3 1 6 22 11
37 36 34 33 33 33 34 34 33 33 33 33 32 31 31 32 30 27 23 16 11 11 7 8 12 6 9 16 28 29 27 23 9 14 11 11 9 7 6 7 6 7 3 7 7 13 11
41 41 38 35 34 34 34 34 34 34 36 36 35 33 31 32 31 26 16 5 4 2 6 15 8 19 15 14 11 19 29 31 27 5 8 4 7 18 16 14 8 4 7 8 4 10 12
44 43 40 39 38 37 36 36 35 35 36 36 36 35 32 31 30 10 10 8 11 9 19 28 41 46 47 20 7 12 35 28 13 9 7 11 16 9 14 12 10 9 8 7 4 3 7
49 44 40 39 39 39 39 38 37 38 38 38 36 35 31 28 17 3 7 10 14 19 7 17 29 33 41 34 20 22 43 25 11 10 10 14 11 12 12 7 8 9 12 10 5 8 1
49 46 42 42 42 42 42 41 39 39 39 39 37 35 32 24 11 11 5 4 18 4 9 12 7 8 25 18 9 36 33 36 5 21 14 11 15 14 5 11 14 14 18 15 19 8 4
46 45 43 42 42 42 42 42 42 41 41 40 38 37 32 25 20 10 8 8 11 3 7 4 5 10 29 31 14 24 44 33 18 13 14 17 11 9 10 17 17 20 15 16 7 8 7
45 43 41 40 39 39 41 42 41 41 43 43 41 38 34 29 20 12 9 9 4 11 10 8 10 11 10 8 4 10 20 26 9 11 4 16 4 10 16 9 20 13 15 17 11 6 4
43 42 40 39 38 39 42 44 44 43 44 44 41 41 35 25 11 7 5 8 9 6 9 9 2 4 7 11 4 8 13 13 11 8 8 5 9 9 9 3 5 10 12 7 6 4 12
43 41 40 40 42 45 48 50 51 49 49 50 43 35 29 19 18 16 11 9 7 6 10 9 9 5 15 9 9 11 12 11 11 9 5 11 12 14 10 17 18 13 14 12 11 8 9
41 39 39 41 44 45 48 50 52 52 53 54 42 17 15 2 19 23 13 6 13 9 5 13 14 7 6 1 9 7 15 16 18 17 13 9 12 8 11 9 18 8 6 9 14 5 3
39 39 39 40 43 45 49 52 55 55 53 52 34 7 27 10 21 24 9 6 6 6 8 4 5 7 10 10 4 8 14 9 13 24 17 11 7 10 4 10 6 14 14 6 5 7 7
38 39 40 42 44 45 48 51 55 56 55 49 15 10 16 29 16 4 6 9 7 6 7 2 2 8 3 4 2 5 9 9 16 11 18 12 8 11 4 8 19 6 4 12 10 8 10
38 39 42 43 44 44 45 49 53 58 56 47 13 7 11 23 8 4 4 4 7 10 11 7 5 14 11 9 7 6 12 9 11 24 20 17 11 10 23 8 6 5 11 13 10 9 2
38 39 40 40 41 43 44 46 49 51 53 46 10 6 8 12 5 6 11 8 4 8 9 9 6 2 3 12 7 14 12 18 21 14 17 15 8 5 21 10 5 7 7 11 12 7 12
34 37 38 41 43 43 43 43 43 44 42 32 10 6 10 14 12 5 7 7 9 12 4 8 6 11 10 6 8 9 7 8 4 11 12 26 6 15 21 20 10 8 11 8 12 9 11
34 36 38 39 41 43 45 45 42 39 36 21 15 5 6 6 7 7 4 4 6 9 12 19 8 9 6 7 11 5 8 16 18 8 10 11 14 12 15 11 10 13 17 18 12 13 13
33 34 36 37 39 42 45 45 41 37 30 19 9 10 11 6 13 9 9 5 6 10 6 7 6 18 11 3 6 10 4 6 11 12 8 6 7 9 8 7 14 12 18 19 7 8 3
31 33 32 32 34 38 44 47 41 36 32 16 15 11 7 8 8 3 2 7 9 14 15 10 16 11 10 7 27 49 43 37 24 6 8 0 10 3 6 8 9 2 21 22 11 10 15
30 32 32 31 31 34 39 42 42 38 30 22 19 13 8 6 3 4 7 12 17 14 10 32 41 9 12 50 46 32 24 41 28 29 30 7 5 6 5 6 3 12 4 14 18 16 15
29 32 31 30 29 30 32 33 33 32 31 22 11 8 6 6 7 20 3 6 25 30 11 16 31 22 45 29 6 9 12 12 12 18 17 21 6 5 10 6 11 15 9 14 14 16 17
28 29 32 31 30 28 27 28 29 28 25 21 12 7 5 10 8 10 6 17 6 7 11 11 32 35 14 5 3 9 8 8 10 8 2 11 10 13 9 12 24 15 6 6 8 6 12
25 26 30 34 31 24 24 26 27 28 29 26 16 10 7 12 18 11 7 5 11 11 7 14 22 20 15 4 7 7 8 7 9 9 8 7 4 17 10 8 10 14 10 11 12 15 15
23 25 28 31 32 24 22 24 27 31 36 34 21 11 8 13 35 52 45 41 28 18 6 11 18 4 8 2 5 7 6 6 3 11 10 10 12 9 8 8 19 13 6 12 10 11 15
22 23 26 30 32 28 23 24 27 31 32 35 31 16 17 27 29 44 57 46 48 47 32 11 14 13 10 5 2 5 3 2 4 7 10 5 7 5 11 14 7 22 4 13 19 17 23
Wind_Direction_850mb
357 354 354 354 355 355 354 355 355 355 355 354 353 352 349 346 346 346 347 357 9 3 6 15 35 36 196 215 202 131 159 181 192 192 185 164 81 143 168 92 111 45 137 61 116 126 102
357 357 352 352 352 353 351 353 353 352 353 350 348 345 342 339 336 336 333 339 351 346 332 311 308 328 267 234 202 158 135 156 198 205 191 170 96 106 111 62 57 61 100 109 89 120 114
358 359 1 359 356 353 353 353 352 351 352 350 348 344 339 335 331 328 325 322 328 328 325 276 259 266 269 219 188 197 175 182 204 209 199 170 137 263 129 76 86 162 91 93 147 124 122
359 357 357 358 356 354 352 351 351 351 351 350 349 346 340 334 327 324 321 312 312 308 296 283 241 259 257 191 177 174 186 196 207 183 173 139 243 157 83 124 37 43 60 107 205 163 169
355 355 353 352 351 349 347 347 347 347 346 346 346 346 343 336 328 325 317 310 303 291 276 258 230 241 261 192 192 188 188 200 184 175 170 150 169 107 112 86 16 9 318 244 196 202 141
357 354 350 348 345 345 344 340 339 339 338 338 339 341 343 338 332 327 318 309 308 304 245 212 234 266 220 193 212 228 204 214 199 186 192 180 153 80 50 86 226 254 252 251 215 206 170
357 354 350 346 343 342 341 338 337 335 332 330 331 332 337 338 335 330 325 321 355 8 233 225 214 260 258 296 250 228 200 200 210 184 147 99 103 225 184 192 199 220 204 238 254 181 168
350 348 348 349 347 344 343 342 341 337 334 331 326 325 329 336 340 353 57 95 73 328 294 262 254 251 246 231 321 184 182 177 158 194 109 33 228 156 166 177 216 243 235 228 340 353 181
349 348 347 347 346 347 344 342 340 340 339 337 330 324 323 330 339 27 357 137 333 317 251 285 239 235 227 221 229 209 179 174 144 143 178 173 251 144 159 164 182 243 217 179 156 102 281
356 356 352 350 347 345 343 343 341 336 334 334 334 328 322 321 314 316 188 329 330 304 46 278 242 238 182 183 224 210 198 183 150 186 159 231 256 249 159 223 150 253 209 229 132 115 248
355 354 353 350 348 346 346 345 344 342 338 335 331 324 318 312 296 290 234 283 319 120 354 238 178 164 170 168 150 197 203 193 166 170 125 237 186 152 194 219 165 242 189 194 124 97 42
354 354 354 354 354 353 353 353 350 345 338 333 330 323 310 304 282 275 219 231 195 43 256 334 134 157 123 217 159 122 163 186 201 142 214 226 215 167 217 166 185 83 77 47 54 69 344
354 356 357 1 2 2 359 356 352 347 339 331 330 318 305 290 267 202 211 171 52 156 323 331 356 105 187 173 184 139 148 171 170 118 237 267 224 238 177 158 91 94 74 26 18 28 226
356 358 1 2 1 358 356 355 353 350 342 335 334 320 305 282 240 210 177 60 167 245 261 321 345 283 185 155 220 176 126 195 216 113 121 187 301 186 187 187 180 176 156 152 190 194 244
356 357 358 357 355 355 354 353 353 352 345 338 342 1 7 285 194 171 157 90 203 217 314 348 330 56 354 84 171 146 188 204 198 167 183 170 279 256 204 152 135 214 166 191 102 357 51
357 355 355 354 353 354 354 353 353 353 350 342 347 46 26 71 148 158 79 215 237 224 336 2 306 40 7 333 44 164 195 216 205 187 155 209 278 227 242 125 45 163 156 81 13 141 223
355 354 353 353 353 355 354 353 354 355 354 351 5 75 55 92 119 136 143 230 284 285 327 288 295 327 217 347 287 248 227 260 198 180 149 144 140 286 357 187 180 142 154 59 112 122 158
353 352 351 352 353 355 356 356 356 356 359 7 36 53 119 16 38 45 107 224 305 318 347 281 203 215 222 196 267 260 236 235 178 148 166 201 158 237 230 221 217 206 156 137 128 218 101
350 352 354 356 357 359 360 356 356 359 2 3 36 51 24 348 75 356 320 310 312 333 329 341 305 345 280 206 224 211 264 260 202 159 169 183 215 275 314 354 31 202 166 118 106 93 188
357 358 1 359 360 2 2 0 358 359 4 6 12 29 23 65 62 87 10 300 325 323 256 1 283 23 351 334 261 277 262 277 212 190 201 152 148 177 222 216 152 185 159 153 125 128 169
357 356 359 1 2 0 360 1 359 1 5 13 24 48 32 340 358 353 312 290 327 354 338 13 3 19 321 322 327 331 325 329 294 179 102 146 206 186 244 231 171 183 175 168 172 163 154
355 356 356 357 358 358 357 0 1 1 10 38 41 14 357 330 319 327 3 32 328 347 300 316 15 321 290 233 205 271 327 252 278 333 194 190 225 166 278 206 193 185 190 159 150 135 131
352 350 352 354 357 358 358 359 5 8 15 51 46 22 352 347 350 25 322 342 333 355 281 267 338 309 275 296 307 282 262 247 258 329 302 206 157 152 259 319 141 34 187 181 175 170 149
347 348 350 352 353 356 356 3 15 22 25 33 35 34 15 297 342 290 331 313 298 314 270 298 308 275 316 318 303 302 289 259 229 246 218 274 304 85 24 347 272 245 120 181 179 187 200
345 346 347 348 349 351 356 0 4 13 22 20 27 44 353 296 252 296 338 320 322 314 273 271 284 296 312 308 279 2 325 320 263 216 205 202 204 82 168 309 295 308 170 153 164 236 200
341 346 347 348 348 348 350 353 355 357 3 8 8 6 324 307 248 239 301 300 301 316 319 285 314 314 316 232 228 162 199 303 297 278 112 153 209 142 144 142 247 245 295 171 99 272 225
334 338 342 344 346 344 347 347 348 347 346 348 337 320 299 273 269 259 237 240 291 286 269 302 333 322 347 346 203 171 216 189 280 286 202 137 280 177 171 129 281 247 221 102 117 230 193
326 331 335 338 346 339 339 340 341 342 341 343 331 305 289 255 273 276 273 266 265 239 242 329 341 272 315 292 200 212 178 213 255 286 301 179 169 178 117 151 230 10 48 166 265 252 199
317 322 327 332 335 342 331 331 331 338 341 343 353 341 290 267 264 282 278 262 262 254 263 237 265 313 275 278 320 316 238 284 141 266 352 300 192 218 199 194 129 314 245 12 356 294 272